Regional Weather Roundup
Issued by NWS Jackson, KY

Home | Current Version | Previous Version | Graphics & Text | Print | Product List | Glossary On
Versions: 1 2 3 4 5 6 7 8 9 10 11 12 13 14 15 16 17 18 19 20 21 22 23 24 25 26 27 28 29 30 31 32 33 34 35 36 37 38 39 40 41 42 43 44 45 46 47 48 49 50
000
ASUS43 KJKL 240219
RWRJKL

EAST KENTUCKY HOURLY WEATHER ROUNDUP
NATIONAL WEATHER SERVICE JACKSON KY
1000 PM EDT THU OCT 23 2014

NOTE: "FAIR" INDICATES FEW OR NO CLOUDS BELOW 12,000 FEET WITH
NO SIGNIFICANT WEATHER AND/OR OBSTRUCTIONS TO VISIBILITY.

* THESE REPORTS ARE NOT UNDER NWS QUALITY CONTROL AND MAY NOT
  REPORT WEATHER SUCH AS PRECIPITATION AND FOG.

KYZ079-080-083-085-087-088-110-112-115-119-120-240300
...EASTERN KENTUCKY...

CITY           SKY/WX    TMP DP  RH WIND       PRES   REMARKS
JACKSON        PTCLDY    51  40  65 SE3       30.14S
LONDON         PTCLDY    46  41  82 CALM      30.14S
SOMERSET*      CLOUDY    46  43  87 CALM      30.15S
MONTICELLO*    CLOUDY    43  42  96 CALM      30.15S
WILLIAMSBURG*  CLEAR     46  45  93 CALM      30.14
MIDDLESBORO*   MOCLDY    46  43  90 CALM      30.15R
HARLAN APT*    CLEAR     45  43  93 CALM      30.15R
HAZARD APT*    CLEAR     45  45 100 CALM      30.15R
BLACK MTN*       N/A     43  36  75 VRB7        N/A
PIKEVILLE APT* CLEAR     46  41  81 S3        30.15R
BIG SANDY*     PTCLDY    47  42  83 SW3       30.15S
MOREHEAD APT*  CLEAR     46  41  81 CALM      30.16S
ASHLAND*       CLEAR     45  39  81 CALM      30.12R
$$

KYZ035-036-041-042-044-050-067-078-099-240300
...CENTRAL KENTUCKY...

CITY           SKY/WX    TMP DP  RH WIND       PRES   REMARKS
MT STERLING*   MOCLDY    41  41 100 CALM      30.16S
FLEMING/MASON* CLEAR     46  41  81 CALM      30.15S
DANVILLE*      CLOUDY    45  43  93 CALM      30.16R FOG
RICHMOND*      CLOUDY    48  41  76 E3        30.14S
LEXINGTON      CLOUDY    50  42  74 CALM      30.14F
FRANKFORT      CLOUDY    47  43  86 CALM      30.14R
$$

KYZ091>093-OHZ055-061-077-WVZ005-015-034-035-042-240300
...SOUTHERN OHIO/WEST VIRGINIA...

CITY           SKY/WX    TMP DP  RH WIND       PRES   REMARKS
COVINGTON      MOCLDY    45  40  82 E3        30.13F
COLUMBUS       PTCLDY    47  40  76 CALM      30.12F
DAYTON         PTCLDY    49  40  71 S3        30.13F
WILMINGTON     CLEAR     44  38  79 CALM      30.13F
HUNTINGTON     CLEAR     45  42  89 SW6       30.13R
CHARLESTON     CLEAR     44  42  93 CALM      30.12S
PINEVILLE*     CLEAR     42  42 100 MISG      30.19R
BECKLEY        CLEAR     41  38  89 CALM      30.12F
BLUEFIELD      PTCLDY    44  39  82 W5        30.13F
$$

VAZ002-007-008-TNZ017-027-036-066-071-240300
...SOUTHWEST VIRGINIA/EAST TENNESSEE...

CITY           SKY/WX    TMP DP  RH WIND       PRES   REMARKS
WISE*          CLEAR     41  41 100 CALM      30.15F
JONESVILLE*    CLEAR     43  41  93 CALM      30.16R
ABINGDON*      CLEAR     42  39  90 CALM      30.14F
BRISTOL        CLEAR     43  40  89 CALM      30.15R
KNOXVILLE      MOCLDY    51  42  71 N6        30.10S
OAK RIDGE      PTCLDY    49  45  86 CALM      30.13R
CROSSVILLE     CLOUDY    49  41  74 CALM      30.13R
NASHVILLE      CLOUDY    54  44  69 NE7       30.13R
$$

...KEY TO REMARKS...
VSB - VISIBILITY IN MILES
WCI - WIND CHILL INDEX
HX  - HEAT INDEX

$$



USA.gov is the U.S. government's official web portal to all federal, state and local government web resources and services.